Regional Weather Roundup
Issued by NWS

Home | Current Version | Previous Version | Graphics & Text | Print | Product List | Glossary On
Versions: 1 2 3 4 5 6 7 8 9 10 11 12 13 14 15 16 17 18 19 20 21 22 23 24 25 26 27 28 29 30 31 32 33 34 35 36 37 38 39 40 41 42 43 44 45 46 47 48 49 50
000
ASUS43 KBIS 021120
RWRND

NORTH DAKOTA REGIONAL WEATHER ROUNDUP
NATIONAL WEATHER SERVICE BISMARCK ND
600 AM CDT THU OCT 02 2014

NOTE: "FAIR" INDICATES FEW OR NO CLOUDS BELOW 12,000 FEET WITH NO
SIGNIFICANT WEATHER AND/OR OBSTRUCTIONS TO VISIBILITY.


NDZ001>003-009>011-017-021200-
NORTHWEST NORTH DAKOTA

CITY           SKY/WX    TMP DP  RH WIND       PRES   REMARKS
WILLISTON      MOCLDY    43  40  89 SE3       29.83F
MINOT          CLEAR     44  40  85 SW10      29.83R
MINOT AFB      CLEAR     44  43  96 SW9       29.82R
$$

NDZ018>021-031>035-040>046-021200-
SOUTHWEST NORTH DAKOTA

CITY           SKY/WX    TMP DP  RH WIND       PRES   REMARKS
BISMARCK       CLEAR     40  39  97 CALM      29.89S
DICKINSON      PTCLDY    39  35  86 SW3       29.89S
GARRISON         N/A     43  42  97 W7        29.85S
HETTINGER ARPT CLEAR     35  32  88 NW5       29.94S
$$

NDZ004>008-012>016-024-026-027-054-021200-
NORTHEAST NORTH DAKOTA

CITY           SKY/WX    TMP DP  RH WIND       PRES   REMARKS
GRAND FORKS    CLOUDY    48  46  93 SW5       29.80R
GRND FRKS AFB  CLOUDY    49  49  99 W6        29.81R
DEVILS LAKE    MOCLDY    48  39  71 W9        29.81S
$$

NDZ022-023-025-028>030-036>039-047>053-021200-
SOUTHEAST NORTH DAKOTA

CITY           SKY/WX    TMP DP  RH WIND       PRES   REMARKS
FARGO          CLOUDY    49  45  86 W9        29.83S
JAMESTOWN      CLOUDY    48  46  93 W6        29.85R
$$




USA.gov is the U.S. government's official web portal to all federal, state and local government web resources and services.